Vertical_Velocity
-2 -2 -2 -2 -2 -2 -2 -2 -3 -2 -2 -2 -2 -3 -3 -2 -2 -3 -3 -3 -2 -2 -3 -4 -3 -3 -4 -5 -4 -4 -4 -4 -4 -3 -3 -3 -3 -3 -2 -2 -2 -1 -1 -0 -1 -1 -0 0 1 1 1 0 2 3 2 -1 2 4 4 1 1 2 4 6 5 4 5 8 6
-2 -2 -2 -2 -2 -2 -2 -2 -2 -2 -2 -2 -2 -2 -2 -2 -2 -2 -3 -4 -3 -3 -3 -4 -4 -3 -3 -4 -4 -4 -3 -3 -4 -3 -2 -2 -2 -2 -2 -1 -1 -1 -1 -0 -0 -1 -1 -1 0 1 1 -1 0 2 2 -1 -1 2 5 3 -0 -0 2 5 4 3 4 6 6
-2 -2 -2 -2 -2 -2 -2 -2 -2 -2 -2 -2 -2 -2 -2 -2 -2 -2 -2 -3 -3 -3 -3 -3 -4 -4 -3 -2 -4 -4 -3 -2 -2 -2 -2 -2 -1 -1 -1 -1 -0 -1 -1 -0 0 -0 -1 -1 -0 0 1 -0 -1 0 1 -1 -2 -0 3 3 0 -0 0 1 0 1 2 5 4
-2 -2 -2 -2 -2 -2 -2 -2 -2 -2 -2 -2 -2 -2 -2 -1 -1 -1 -2 -2 -3 -3 -3 -3 -3 -4 -3 -1 -2 -2 -3 -2 -2 -1 -1 -1 -1 -0 -0 -0 0 0 -0 -0 0 0 -0 -1 -1 -0 0 0 0 0 -0 -1 -1 -1 -0 -1 -1 1 1 0 -2 -2 -0 5 4
-2 -2 -2 -2 -2 -2 -2 -2 -1 -2 -2 -2 -1 -1 -1 -1 -1 -1 -2 -2 -3 -3 -3 -3 -2 -3 -3 -2 -1 -1 -1 -2 -1 -1 -0 -0 -1 -0 0 0 0 0 1 0 0 0 0 0 0 -0 -0 0 2 1 -0 -2 -0 0 -0 -3 -2 -0 2 2 -1 -3 -2 4 4
-3 -3 -3 -2 -2 -2 -2 -2 -1 -0 -0 -0 0 0 -0 -1 -1 -1 -2 -2 -2 -3 -3 -2 -2 -2 -2 -2 -1 -0 -0 -1 -1 -1 0 1 -0 -0 0 1 1 0 1 1 1 0 -0 0 2 1 -1 -2 2 2 0 -2 0 1 1 -1 -2 -2 0 4 0 -2 -2 3 4
-2 -2 -2 -2 -2 -1 -1 -1 -0 0 0 0 1 1 -0 -1 -1 -2 -2 -2 -2 -3 -3 -3 -2 -2 -2 -2 -1 -1 -0 0 -0 -1 -0 1 1 -0 -0 1 1 1 0 1 1 1 -0 -2 1 2 0 -3 -1 1 0 -2 0 1 1 1 -1 -2 -1 4 2 -0 -1 1 3
-2 -1 -1 -1 -1 -0 0 -0 0 0 0 -0 0 0 -0 -1 -2 -2 -3 -3 -3 -3 -3 -3 -3 -3 -2 -2 -1 -1 -1 1 1 -0 -1 0 1 1 -0 -0 1 1 1 -0 1 2 1 -2 -1 0 1 -1 -1 -1 -2 -3 1 2 1 1 1 -0 -0 1 2 2 1 1 1
-1 -1 -1 -0 -0 0 1 0 0 0 0 -1 -1 -1 -1 -2 -2 -3 -3 -3 -3 -3 -3 -3 -3 -2 -2 -1 -1 -1 -1 -0 1 1 -0 -1 0 1 0 -1 0 1 0 -2 -0 1 2 -0 -0 -1 -1 -2 1 0 -2 -5 -1 2 2 -1 0 2 2 -1 -0 2 4 2 1
-0 -0 0 0 -0 -0 0 -0 -1 -1 -0 -1 -2 -3 -2 -2 -3 -3 -3 -2 -2 -3 -4 -3 -2 -2 -2 -2 -1 -1 -1 -1 0 1 0 -1 -1 -0 0 -0 -0 0 0 -2 -2 -1 0 0 0 0 -1 -3 -1 1 0 -4 -2 1 2 -0 -1 2 4 1 -2 -0 3 4 2
0 0 1 1 0 -0 -0 -0 -1 -2 -1 -1 -2 -3 -3 -2 -2 -3 -3 -3 -2 -2 -3 -4 -2 -1 -1 -2 -1 -0 -0 -1 -1 -0 0 -0 -1 -1 -1 -0 -1 -0 -0 -1 -3 -2 -1 -0 -0 0 0 -2 -3 -1 1 -0 -2 -1 0 -0 -1 1 4 4 -0 -1 1 4 4
1 1 1 1 1 -0 -0 -0 -1 -1 -2 -2 -2 -2 -2 -2 -2 -2 -2 -3 -2 -2 -2 -4 -2 -1 -1 -2 -2 -1 -0 -0 -1 -1 -1 -0 -1 -1 -1 -1 -1 -0 -0 -0 -2 -2 -1 -1 -2 -1 0 -0 -3 -4 -2 -0 -1 -2 -2 -2 -2 -1 2 4 2 1 1 1 3
1 1 1 1 1 1 0 -0 -1 -1 -1 -1 -2 -2 -2 -2 -3 -3 -2 -1 -2 -2 -2 -3 -3 -2 -1 -0 -2 -2 -1 -1 -1 -1 -1 -2 -2 -1 -1 -1 -2 -1 -0 -0 -2 -2 -1 -1 -4 -3 -2 0 -2 -4 -4 -2 -2 -2 -2 -3 -3 -2 -1 0 1 1 2 2 2
1 1 1 1 1 1 1 0 -1 -1 -1 -2 -2 -2 -2 -2 -4 -3 -2 -1 -2 -2 -1 -1 -2 -3 -2 -0 -0 -2 -2 -2 -1 -1 -1 -2 -3 -2 -1 -0 -2 -2 -1 -0 -2 -2 -2 -1 -3 -5 -5 -3 -3 -4 -4 -4 -2 -2 -2 -3 -2 -2 -2 -2 -2 -1 1 3 3
1 1 1 2 1 1 1 0 -1 -1 -2 -2 -3 -3 -3 -3 -4 -4 -2 -1 -2 -2 -2 -0 -1 -2 -4 -3 -1 -0 -1 -3 -3 -2 -1 -1 -3 -3 -2 -0 -1 -2 -2 -1 -1 -2 -3 -2 -2 -3 -4 -4 -4 -5 -5 -4 -3 -2 -2 -3 -2 -2 -1 -2 -3 -2 -1 1 2
1 1 1 2 1 0 -0 -0 -1 -2 -2 -2 -4 -4 -4 -3 -4 -4 -3 -1 -2 -2 -3 -2 -1 -1 -2 -4 -4 -1 -0 -1 -3 -3 -2 -1 -2 -3 -3 -2 -2 -2 -2 -2 -1 -2 -3 -4 -4 -3 -3 -3 -4 -5 -5 -5 -4 -3 -3 -3 -2 -2 -1 -2 -3 -2 -2 -2 -1
1 1 1 1 1 -0 -1 -1 -2 -2 -3 -3 -4 -5 -4 -4 -4 -4 -4 -3 -1 -1 -2 -4 -4 -2 -0 -1 -5 -5 -2 0 -2 -4 -4 -2 -2 -2 -3 -3 -3 -2 -2 -1 -1 -2 -3 -4 -4 -4 -4 -3 -3 -4 -4 -4 -3 -3 -3 -3 -2 -2 -1 -2 -3 -2 -2 -2 -2
2 2 2 2 1 -0 -1 -2 -2 -3 -4 -4 -4 -5 -5 -4 -3 -3 -4 -5 -4 -1 -0 -2 -5 -4 -2 0 -3 -5 -5 -1 -1 -3 -4 -4 -2 -1 -1 -2 -3 -2 -2 -1 -1 -2 -3 -4 -4 -4 -4 -4 -4 -4 -4 -3 -2 -1 -2 -2 -2 -1 -1 -2 -3 -3 -3 -2 -1
3 3 2 2 1 -0 -2 -2 -3 -4 -4 -5 -4 -4 -5 -5 -4 -2 -2 -4 -5 -4 -1 -0 -3 -4 -4 -2 -1 -3 -4 -4 -1 -1 -2 -5 -3 -1 -1 -1 -1 -2 -2 -1 -1 -1 -3 -4 -5 -5 -4 -4 -4 -4 -4 -3 -1 -0 -1 -1 -1 -1 -1 -1 -2 -3 -3 -3 -2
2 2 2 1 -0 -1 -2 -3 -4 -4 -4 -5 -5 -4 -4 -5 -4 -3 -3 -3 -5 -5 -4 -2 -2 -3 -3 -4 -2 -2 -3 -5 -2 0 -0 -3 -3 -2 -2 -1 0 -0 -2 -3 -2 -2 -2 -4 -5 -5 -5 -4 -4 -4 -4 -4 -2 -1 -1 -1 -1 -1 -0 -0 -1 -2 -2 -3 -3
1 1 1 -0 -1 -2 -3 -4 -4 -4 -5 -5 -5 -4 -4 -4 -4 -4 -4 -3 -4 -4 -4 -4 -3 -2 -2 -3 -2 -2 -2 -4 -3 -0 1 -0 -1 -3 -4 -3 0 1 -0 -3 -4 -4 -4 -4 -5 -5 -5 -4 -3 -4 -4 -5 -4 -3 -2 -2 -2 -1 -0 0 -0 -1 -1 -1 -2
0 -0 -1 -1 -2 -4 -4 -5 -5 -5 -4 -4 -4 -4 -4 -4 -4 -4 -4 -4 -4 -3 -3 -3 -3 -3 -2 -3 -2 -2 -1 -2 -3 -2 -0 1 2 -0 -3 -5 -2 0 0 -2 -4 -4 -5 -5 -7 -7 -7 -6 -4 -4 -5 -6 -6 -5 -4 -4 -3 -2 -1 0 1 1 0 -1 -1
-0 -1 -2 -2 -3 -4 -5 -5 -5 -4 -4 -4 -4 -4 -4 -4 -4 -4 -4 -4 -3 -3 -2 -3 -3 -2 -2 -2 -3 -2 -1 -0 -1 -2 -3 -2 1 2 1 -2 -2 -1 -0 -1 -3 -4 -5 -6 -8 -9 -11 -11 -9 -7 -6 -6 -6 -6 -6 -6 -5 -4 -2 -0 1 1 2 1 -0
-0 -1 -3 -4 -4 -4 -4 -4 -4 -4 -4 -5 -4 -4 -4 -4 -4 -3 -3 -3 -3 -2 -2 -2 -3 -2 -2 -1 -2 -3 -2 -0 0 -0 -2 -4 -2 -1 1 1 -0 -0 -0 -1 -2 -4 -5 -7 -8 -9 -10 -12 -12 -11 -10 -8 -6 -5 -5 -5 -6 -6 -5 -3 -1 1 2 3 1
-1 -2 -3 -4 -4 -4 -4 -4 -4 -4 -4 -5 -5 -4 -4 -4 -4 -3 -2 -2 -3 -3 -2 -1 -1 -2 -2 -1 -1 -2 -2 -2 -1 0 0 -1 -3 -3 -3 -1 -0 -0 -0 -1 -1 -1 -3 -5 -6 -7 -8 -10 -11 -11 -11 -10 -8 -6 -5 -4 -5 -5 -5 -5 -4 -3 -0 2 2
-1 -2 -3 -4 -4 -4 -4 -5 -4 -4 -4 -5 -4 -4 -4 -4 -4 -3 -2 -1 -2 -3 -2 -1 -1 -1 -1 -1 -0 -0 -2 -3 -3 -2 -1 -1 -1 -2 -3 -3 -3 -2 -2 -1 -1 -1 -1 -2 -2 -3 -4 -6 -8 -9 -10 -10 -10 -8 -6 -4 -5 -5 -5 -5 -5 -5 -4 -2 -0
-2 -2 -3 -4 -4 -4 -4 -5 -4 -4 -5 -5 -4 -4 -3 -4 -3 -3 -3 -2 -2 -2 -2 -2 -1 -1 0 1 0 -0 -0 -2 -3 -4 -4 -4 -3 -2 -1 -1 -1 -2 -2 -2 -1 -1 -1 -1 -0 -0 -1 -3 -6 -8 -9 -9 -9 -9 -8 -6 -5 -5 -5 -5 -5 -6 -6 -5 -4
-2 -3 -4 -4 -4 -5 -5 -5 -4 -4 -4 -4 -4 -3 -3 -3 -3 -3 -3 -2 -2 -2 -1 -2 -3 -3 -2 -0 -0 -1 -1 -1 -2 -3 -3 -3 -4 -3 -2 0 1 1 -0 -2 -1 -1 -2 -2 -1 -1 -0 -1 -4 -6 -8 -8 -8 -9 -9 -8 -6 -5 -5 -5 -6 -6 -5 -5 -5
-2 -3 -4 -4 -4 -5 -5 -5 -4 -4 -4 -4 -3 -3 -3 -3 -3 -3 -2 -2 -2 -2 -2 -1 -2 -3 -4 -4 -3 -2 -2 -3 -4 -3 -2 -1 -1 -2 -2 -1 1 2 1 -1 -1 -2 -2 -3 -3 -2 -1 -2 -3 -5 -6 -7 -7 -8 -8 -8 -7 -6 -4 -4 -5 -5 -5 -5 -4
-3 -3 -4 -4 -4 -4 -4 -4 -4 -3 -3 -4 -4 -3 -3 -2 -3 -3 -3 -2 -2 -3 -4 -3 -0 -0 -2 -4 -3 -2 -1 -2 -4 -4 -4 -2 -1 -1 -1 -1 0 1 -0 -2 -2 -3 -3 -3 -3 -2 -2 -2 -2 -4 -5 -6 -6 -6 -6 -7 -7 -6 -5 -4 -4 -4 -4 -4 -4
-4 -4 -4 -4 -4 -4 -4 -3 -3 -4 -4 -4 -3 -3 -3 -3 -3 -3 -3 -2 -1 -2 -4 -6 -3 -1 -1 -2 -2 -1 -0 0 -1 -2 -3 -3 -2 -2 -2 -3 -1 -1 -1 -2 -3 -4 -4 -3 -3 -2 -2 -2 -2 -3 -4 -4 -5 -5 -5 -5 -5 -5 -4 -4 -4 -4 -3 -3 -2
-4 -4 -4 -3 -3 -4 -4 -4 -3 -3 -3 -3 -3 -3 -2 -2 -3 -4 -4 -3 -1 -0 -1 -3 -4 -4 -3 -4 -4 -3 -3 -3 -2 -1 -1 -2 -2 -3 -3 -4 -4 -2 -2 -2 -4 -4 -4 -3 -2 -2 -2 -2 -3 -3 -4 -4 -4 -4 -4 -4 -4 -3 -2 -2 -3 -3 -2 -2 -1
-4 -4 -4 -3 -3 -3 -4 -4 -3 -3 -2 -2 -3 -3 -2 -0 -1 -3 -4 -5 -4 -1 0 -0 -1 -2 -4 -5 -4 -3 -2 -4 -4 -4 -3 -3 -2 -2 -3 -4 -5 -3 -2 -1 -3 -4 -4 -3 -2 -2 -2 -3 -3 -4 -4 -4 -4 -5 -4 -4 -4 -2 -1 -0 -0 -1 -1 -1 -0
-4 -4 -4 -4 -3 -3 -3 -4 -4 -3 -2 -1 -2 -3 -3 -2 -0 -0 -2 -4 -4 -3 -2 -2 -2 -1 -2 -4 -4 -2 0 0 -2 -4 -5 -5 -4 -3 -3 -4 -5 -4 -2 0 -2 -4 -4 -3 -2 -2 -2 -3 -4 -4 -5 -5 -6 -6 -5 -4 -4 -2 -1 0 1 0 0 1 1
-4 -3 -3 -4 -4 -3 -3 -3 -3 -3 -2 -1 -0 -1 -2 -3 -2 -1 -0 -0 -1 -2 -3 -4 -2 -1 -1 -3 -5 -4 -2 0 -0 -2 -5 -8 -6 -4 -3 -4 -5 -4 -2 0 -1 -3 -4 -3 -2 -2 -2 -3 -4 -5 -6 -5 -6 -6 -6 -4 -3 -2 -1 -0 -0 -0 0 1 1
-4 -3 -2 -3 -4 -4 -3 -2 -2 -2 -2 -2 -1 -0 0 -1 -2 -4 -4 -2 -0 -1 -3 -4 -3 -1 -1 -1 -2 -4 -4 -3 -1 -1 -3 -8 -8 -6 -5 -5 -6 -5 -3 -1 -1 -3 -4 -3 -1 -1 -2 -3 -5 -6 -7 -6 -6 -6 -6 -5 -4 -2 -1 -1 -1 -1 -1 -0 1
-4 -4 -3 -2 -3 -4 -4 -3 -2 -1 -1 -2 -2 -1 0 2 1 -2 -5 -6 -3 -2 -3 -6 -5 -4 -3 -3 -1 -2 -3 -5 -2 -1 -1 -6 -8 -8 -6 -5 -7 -7 -5 -2 -2 -2 -3 -2 -1 -0 -1 -2 -5 -7 -8 -8 -8 -7 -6 -5 -5 -4 -2 -1 -2 -2 -2 -1 -0
-5 -4 -3 -2 -3 -3 -4 -4 -2 -1 -1 -1 -2 -3 -3 -1 1 -1 -4 -7 -5 -4 -4 -5 -6 -7 -7 -6 -4 -3 -4 -6 -4 -1 -0 -1 -6 -7 -6 -5 -7 -8 -7 -4 -2 -2 -2 -1 -0 0 -0 -2 -4 -6 -8 -8 -8 -8 -7 -6 -6 -5 -4 -2 -2 -2 -3 -3 -2
-4 -4 -4 -3 -3 -3 -3 -3 -4 -3 -1 1 0 -2 -4 -4 -2 -2 -4 -6 -7 -6 -5 -4 -5 -6 -8 -8 -6 -5 -5 -6 -5 -3 -0 1 -2 -4 -5 -4 -5 -6 -6 -4 -1 -1 -1 -0 0 0 -0 -2 -4 -6 -7 -8 -8 -8 -8 -7 -6 -6 -6 -5 -3 -3 -4 -6 -3
-4 -3 -3 -4 -4 -3 -2 -1 -3 -4 -3 -0 1 -0 -3 -4 -4 -4 -4 -4 -6 -7 -8 -6 -5 -5 -7 -9 -8 -7 -6 -6 -6 -4 -2 1 -0 -2 -3 -2 -3 -5 -5 -3 -0 0 0 -0 0 1 -0 -2 -4 -5 -6 -7 -8 -8 -8 -8 -6 -6 -7 -8 -7 -5 -4 -4 -3
-4 -3 -2 -3 -5 -4 -2 1 -1 -3 -4 -3 -2 -1 -2 -4 -5 -5 -5 -4 -4 -6 -8 -7 -5 -5 -6 -8 -8 -8 -7 -6 -5 -4 -2 0 1 -0 -1 -1 -1 -3 -4 -4 -0 1 1 -0 0 0 -0 -1 -3 -5 -6 -6 -7 -8 -9 -9 -8 -7 -7 -9 -9 -8 -4 -1 -1
Height
3079 3078 3077 3076 3075 3074 3073 3071 3071 3069 3068 3067 3066 3064 3063 3061 3060 3058 3056 3055 3053 3051 3050 3048 3046 3044 3042 3040 3039 3037 3035 3033 3031 3029 3027 3025 3023 3021 3019 3017 3016 3014 3012 3011 3009 3007 3005 3004 3002 3000 2999 2997 2995 2994 2991 2990 2988 2986 2984 2982 2981 2979 2977 2975 2974 2972 2970 2969 2966
3077 3076 3075 3074 3073 3072 3071 3069 3068 3067 3066 3064 3063 3061 3060 3059 3057 3056 3054 3052 3050 3049 3047 3045 3043 3041 3039 3037 3035 3033 3031 3029 3027 3026 3024 3022 3020 3018 3016 3014 3012 3011 3009 3007 3006 3004 3002 3000 2999 2997 2996 2994 2992 2991 2989 2986 2985 2983 2981 2979 2977 2976 2974 2972 2970 2968 2966 2965 2963
3076 3074 3073 3072 3071 3070 3068 3067 3066 3064 3063 3062 3061 3059 3057 3056 3055 3053 3051 3050 3047 3046 3044 3042 3040 3038 3036 3034 3032 3030 3028 3026 3024 3022 3020 3018 3016 3015 3013 3011 3009 3008 3006 3004 3002 3001 2999 2997 2996 2994 2992 2991 2989 2987 2985 2983 2982 2980 2978 2976 2974 2972 2971 2968 2966 2965 2963 2961 2959
3073 3072 3071 3070 3068 3067 3066 3064 3063 3062 3061 3059 3058 3056 3055 3054 3052 3050 3049 3046 3045 3042 3041 3039 3037 3035 3032 3031 3029 3026 3024 3022 3021 3019 3017 3015 3013 3012 3010 3008 3006 3005 3003 3001 3000 2998 2996 2994 2993 2991 2989 2987 2986 2984 2982 2980 2979 2977 2975 2973 2971 2969 2967 2965 2963 2961 2960 2958 2956
3071 3069 3068 3067 3066 3064 3063 3062 3061 3059 3058 3057 3056 3054 3052 3051 3049 3047 3046 3044 3041 3040 3037 3035 3033 3031 3029 3027 3026 3023 3021 3020 3017 3016 3014 3012 3011 3009 3007 3005 3004 3002 3000 2998 2997 2995 2993 2991 2990 2988 2986 2985 2983 2981 2979 2977 2976 2973 2971 2970 2968 2966 2964 2962 2959 2958 2956 2954 2952
3068 3067 3066 3064 3063 3062 3061 3059 3058 3057 3056 3054 3053 3051 3050 3048 3046 3044 3042 3041 3038 3036 3034 3032 3030 3028 3026 3024 3022 3021 3019 3017 3015 3013 3011 3010 3008 3006 3005 3003 3001 2999 2998 2996 2994 2992 2991 2989 2987 2985 2983 2982 2980 2978 2976 2974 2972 2970 2968 2966 2965 2963 2961 2959 2956 2954 2953 2951 2949
3066 3064 3063 3062 3061 3060 3058 3057 3056 3055 3053 3052 3051 3049 3047 3045 3043 3041 3039 3037 3036 3033 3031 3029 3027 3025 3023 3021 3020 3018 3016 3014 3012 3011 3009 3007 3005 3004 3002 3001 2999 2997 2995 2993 2991 2990 2988 2986 2985 2982 2980 2979 2977 2975 2973 2971 2969 2967 2965 2963 2961 2959 2957 2955 2953 2951 2949 2947 2945
3063 3062 3061 3060 3058 3057 3056 3055 3054 3052 3051 3049 3048 3046 3044 3042 3040 3038 3036 3035 3033 3031 3029 3026 3025 3023 3021 3019 3017 3015 3013 3012 3010 3008 3006 3005 3003 3001 3000 2998 2996 2994 2992 2991 2989 2987 2985 2983 2981 2980 2977 2976 2974 2972 2970 2968 2966 2964 2961 2960 2958 2956 2954 2952 2950 2947 2945 2943 2941
3061 3060 3059 3057 3056 3055 3054 3052 3051 3050 3048 3046 3045 3043 3041 3039 3038 3036 3034 3032 3030 3028 3026 3024 3022 3020 3018 3016 3015 3013 3011 3009 3007 3006 3004 3002 3001 2999 2997 2995 2994 2992 2990 2988 2986 2985 2983 2981 2979 2977 2975 2973 2971 2969 2966 2965 2963 2961 2958 2956 2954 2952 2950 2948 2946 2944 2942 2940 2938
3059 3058 3056 3055 3054 3053 3051 3050 3049 3047 3046 3044 3042 3041 3039 3037 3035 3033 3031 3030 3027 3026 3024 3022 3020 3018 3016 3014 3012 3011 3009 3007 3005 3003 3001 3000 2998 2996 2994 2992 2991 2989 2987 2985 2984 2982 2980 2978 2976 2974 2972 2970 2968 2966 2963 2961 2959 2957 2955 2953 2951 2949 2947 2944 2942 2941 2938 2936 2934
3057 3056 3054 3053 3052 3051 3049 3048 3046 3045 3043 3041 3040 3038 3036 3035 3033 3031 3029 3027 3025 3023 3021 3019 3018 3016 3014 3012 3010 3008 3006 3005 3003 3001 2999 2997 2996 2994 2992 2990 2988 2986 2984 2982 2981 2979 2977 2975 2973 2971 2969 2967 2965 2963 2961 2958 2956 2954 2952 2950 2947 2945 2943 2941 2939 2936 2935 2932 2930
3055 3053 3052 3051 3050 3048 3047 3045 3044 3042 3041 3039 3038 3036 3034 3032 3031 3029 3027 3025 3023 3021 3019 3017 3015 3013 3011 3010 3008 3006 3004 3002 3000 2998 2997 2995 2993 2991 2989 2987 2986 2984 2982 2980 2978 2976 2974 2972 2970 2968 2966 2964 2961 2959 2957 2955 2953 2951 2948 2946 2944 2942 2940 2937 2935 2933 2931 2929 2926
3053 3051 3050 3049 3047 3046 3045 3043 3041 3040 3038 3037 3035 3034 3032 3030 3028 3026 3025 3023 3021 3019 3017 3015 3013 3011 3009 3007 3005 3003 3002 3000 2998 2996 2994 2992 2991 2989 2987 2985 2983 2981 2979 2977 2975 2973 2971 2969 2966 2965 2963 2961 2958 2956 2954 2952 2950 2947 2945 2943 2941 2938 2936 2934 2932 2929 2927 2925 2923
3051 3049 3048 3046 3045 3044 3042 3041 3039 3038 3036 3035 3033 3031 3030 3028 3026 3024 3022 3021 3019 3017 3015 3013 3011 3009 3007 3005 3003 3001 2999 2998 2996 2994 2992 2990 2988 2986 2984 2982 2980 2978 2977 2975 2972 2970 2968 2966 2963 2961 2960 2957 2955 2953 2951 2949 2946 2944 2942 2939 2937 2935 2933 2930 2928 2926 2924 2921 2919
3049 3047 3046 3045 3043 3041 3040 3038 3037 3035 3034 3032 3031 3029 3027 3026 3024 3022 3020 3018 3016 3015 3013 3011 3009 3006 3005 3003 3001 2999 2997 2995 2993 2992 2990 2987 2986 2984 2982 2980 2978 2976 2974 2972 2970 2968 2966 2963 2961 2958 2956 2954 2952 2950 2948 2946 2944 2941 2939 2936 2934 2931 2929 2927 2924 2922 2920 2918 2916
3046 3045 3044 3042 3041 3039 3038 3036 3034 3033 3031 3029 3028 3026 3025 3023 3021 3019 3017 3016 3014 3012 3010 3008 3006 3004 3002 3000 2998 2997 2995 2992 2991 2989 2987 2985 2983 2981 2979 2977 2975 2973 2971 2969 2967 2965 2962 2961 2958 2956 2953 2951 2949 2947 2945 2942 2940 2938 2936 2933 2931 2928 2926 2923 2921 2919 2916 2914 2912
3045 3043 3041 3040 3039 3037 3035 3033 3032 3030 3028 3027 3025 3024 3022 3020 3018 3016 3015 3013 3011 3010 3007 3006 3004 3002 3000 2998 2996 2994 2992 2990 2988 2986 2984 2982 2980 2978 2976 2974 2972 2970 2968 2966 2964 2961 2959 2957 2955 2953 2951 2948 2946 2944 2941 2939 2937 2935 2932 2930 2927 2925 2922 2920 2917 2915 2912 2910 2908
3042 3041 3040 3038 3036 3034 3032 3031 3029 3027 3026 3024 3022 3021 3019 3017 3016 3014 3012 3010 3009 3007 3005 3003 3001 2999 2997 2995 2993 2991 2989 2987 2985 2983 2981 2979 2977 2975 2973 2971 2969 2967 2965 2963 2961 2958 2956 2954 2952 2950 2947 2945 2943 2941 2938 2936 2933 2931 2928 2926 2924 2921 2918 2916 2913 2911 2909 2906 2904
3040 3039 3037 3036 3033 3031 3030 3028 3026 3025 3023 3021 3020 3018 3016 3015 3013 3011 3010 3008 3006 3004 3002 3000 2998 2996 2995 2993 2991 2988 2986 2985 2982 2980 2978 2976 2974 2972 2970 2968 2966 2964 2962 2960 2958 2955 2953 2951 2948 2946 2944 2942 2939 2937 2935 2932 2930 2927 2924 2922 2920 2917 2915 2912 2909 2907 2905 2902 2900
3038 3036 3034 3032 3031 3029 3027 3026 3024 3022 3021 3019 3017 3016 3014 3012 3011 3009 3007 3005 3003 3001 3000 2998 2996 2994 2992 2990 2988 2986 2983 2981 2980 2978 2976 2973 2971 2970 2967 2966 2963 2961 2959 2957 2955 2952 2950 2947 2945 2943 2940 2938 2935 2933 2930 2928 2925 2923 2920 2917 2915 2913 2910 2908 2905 2903 2900 2898 2896
3035 3033 3031 3030 3028 3026 3025 3023 3021 3020 3018 3016 3015 3013 3012 3010 3008 3006 3005 3003 3001 2999 2997 2995 2993 2991 2989 2987 2985 2983 2981 2979 2977 2975 2973 2971 2969 2967 2965 2963 2961 2959 2956 2954 2951 2949 2946 2944 2941 2939 2936 2934 2931 2928 2926 2923 2921 2918 2916 2913 2911 2908 2906 2903 2901 2898 2896 2894 2891
3033 3031 3029 3027 3026 3024 3022 3020 3019 3017 3016 3014 3012 3011 3010 3008 3006 3004 3002 3000 2998 2996 2994 2992 2990 2988 2986 2984 2982 2980 2978 2976 2975 2973 2971 2969 2967 2964 2962 2960 2958 2956 2953 2951 2948 2945 2942 2940 2937 2935 2932 2929 2926 2924 2921 2918 2916 2913 2910 2908 2906 2903 2901 2899 2896 2894 2892 2889 2887
3030 3029 3027 3025 3023 3021 3020 3018 3016 3015 3013 3012 3010 3009 3007 3006 3004 3001 3000 2997 2996 2994 2991 2990 2988 2986 2983 2981 2979 2977 2976 2974 2972 2970 2969 2967 2965 2962 2960 2957 2955 2953 2950 2947 2944 2941 2938 2935 2932 2929 2927 2924 2921 2919 2916 2913 2911 2908 2905 2903 2901 2899 2896 2894 2892 2890 2887 2885 2883
3028 3026 3024 3022 3021 3019 3017 3016 3014 3013 3011 3010 3008 3006 3005 3003 3001 2999 2997 2995 2993 2991 2989 2987 2985 2983 2981 2979 2977 2975 2973 2971 2970 2968 2966 2964 2962 2960 2957 2955 2952 2950 2947 2944 2941 2937 2934 2930 2927 2924 2921 2918 2916 2913 2911 2909 2906 2903 2901 2898 2896 2894 2892 2890 2888 2886 2883 2881 2879
3026 3024 3022 3020 3018 3017 3015 3013 3012 3011 3009 3007 3006 3004 3002 3000 2998 2996 2994 2992 2991 2989 2986 2985 2982 2981 2979 2977 2975 2973 2971 2969 2967 2965 2963 2961 2959 2957 2954 2951 2949 2946 2943 2940 2937 2934 2930 2927 2923 2920 2916 2914 2911 2909 2906 2904 2902 2900 2897 2894 2892 2890 2887 2885 2883 2881 2880 2877 2875
3023 3021 3019 3018 3016 3015 3013 3011 3010 3008 3006 3005 3003 3001 2999 2997 2996 2994 2992 2990 2988 2986 2984 2982 2980 2978 2976 2975 2973 2971 2969 2966 2965 2962 2960 2958 2955 2953 2951 2948 2945 2942 2939 2936 2933 2930 2926 2923 2920 2916 2913 2910 2907 2905 2902 2900 2898 2896 2893 2891 2888 2886 2883 2881 2879 2877 2875 2873 2871
3021 3019 3017 3015 3014 3012 3011 3009 3007 3006 3004 3002 3000 2998 2996 2995 2993 2991 2989 2987 2985 2983 2981 2980 2978 2976 2974 2972 2970 2968 2966 2964 2962 2959 2957 2955 2952 2949 2947 2944 2941 2938 2935 2932 2929 2926 2922 2920 2917 2914 2910 2907 2904 2901 2899 2896 2894 2892 2890 2887 2885 2882 2880 2877 2875 2872 2870 2868 2866
3018 3016 3015 3013 3011 3010 3008 3006 3005 3003 3001 3000 2998 2996 2994 2992 2990 2988 2986 2984 2982 2981 2979 2977 2975 2973 2971 2970 2968 2966 2963 2961 2959 2956 2954 2951 2948 2946 2943 2940 2937 2934 2931 2928 2925 2922 2919 2916 2913 2911 2908 2904 2901 2898 2895 2893 2890 2888 2886 2883 2881 2879 2876 2874 2871 2868 2866 2864 2861
3016 3014 3012 3011 3009 3007 3006 3004 3002 3001 2999 2997 2995 2993 2991 2989 2987 2985 2983 2981 2980 2978 2976 2974 2972 2970 2969 2967 2965 2963 2961 2958 2956 2953 2951 2948 2945 2942 2939 2936 2933 2930 2927 2925 2921 2918 2915 2912 2910 2907 2904 2901 2898 2895 2892 2889 2887 2884 2882 2880 2877 2875 2872 2870 2867 2864 2862 2859 2857
3013 3011 3010 3008 3007 3005 3003 3001 3000 2998 2996 2994 2992 2991 2988 2986 2985 2982 2981 2979 2977 2976 2974 2972 2970 2968 2966 2964 2962 2960 2957 2955 2952 2950 2947 2944 2941 2938 2936 2933 2930 2927 2924 2921 2918 2915 2912 2909 2906 2904 2901 2898 2895 2892 2889 2886 2884 2881 2879 2876 2874 2871 2869 2866 2863 2861 2858 2855 2853
3010 3009 3007 3006 3004 3003 3001 2999 2997 2996 2994 2992 2990 2988 2986 2984 2982 2980 2978 2976 2975 2973 2971 2969 2967 2966 2963 2961 2959 2957 2954 2952 2949 2946 2943 2940 2937 2934 2932 2929 2926 2924 2921 2917 2914 2911 2909 2906 2903 2901 2898 2895 2892 2889 2886 2883 2881 2878 2875 2873 2870 2868 2865 2862 2859 2857 2854 2851 2849
3008 3006 3005 3003 3002 3000 2999 2997 2995 2993 2991 2989 2987 2985 2983 2981 2979 2977 2976 2974 2972 2970 2968 2966 2965 2962 2960 2958 2956 2954 2951 2948 2946 2943 2940 2936 2934 2931 2928 2926 2923 2920 2917 2914 2911 2908 2905 2902 2900 2897 2895 2892 2889 2886 2883 2880 2877 2875 2872 2870 2867 2864 2861 2859 2856 2853 2850 2848 2845
3006 3004 3003 3001 3000 2998 2996 2995 2993 2991 2989 2986 2984 2982 2981 2979 2977 2975 2973 2971 2970 2968 2966 2964 2962 2959 2957 2955 2952 2950 2947 2944 2942 2939 2936 2933 2931 2927 2925 2922 2919 2917 2914 2911 2907 2905 2902 2899 2897 2894 2891 2888 2885 2882 2880 2877 2874 2871 2869 2866 2863 2861 2858 2855 2852 2849 2846 2844 2841
3003 3002 3000 2999 2997 2996 2994 2992 2990 2988 2986 2984 2982 2980 2978 2976 2974 2972 2971 2969 2967 2965 2963 2961 2959 2957 2954 2951 2949 2946 2944 2941 2938 2935 2932 2930 2927 2924 2921 2919 2916 2913 2911 2907 2904 2901 2899 2896 2894 2891 2888 2885 2882 2879 2876 2873 2871 2868 2865 2862 2860 2857 2854 2851 2849 2846 2843 2841 2838
3001 2999 2998 2996 2995 2993 2991 2989 2987 2985 2983 2981 2980 2977 2976 2974 2972 2970 2968 2966 2964 2962 2961 2959 2956 2954 2951 2949 2946 2943 2941 2938 2935 2932 2929 2926 2923 2921 2918 2915 2913 2911 2908 2905 2901 2899 2896 2893 2891 2888 2885 2881 2878 2875 2872 2870 2867 2864 2861 2858 2856 2853 2851 2848 2845 2842 2840 2838 2836
2998 2997 2996 2994 2992 2991 2989 2986 2985 2983 2981 2979 2977 2975 2973 2971 2969 2967 2966 2964 2962 2960 2958 2956 2953 2951 2948 2946 2943 2940 2937 2934 2931 2928 2925 2922 2920 2917 2914 2911 2909 2907 2905 2902 2899 2896 2893 2890 2887 2885 2881 2878 2875 2871 2869 2866 2863 2860 2857 2854 2852 2849 2846 2844 2841 2839 2837 2835 2833
2996 2995 2993 2991 2990 2988 2986 2984 2982 2980 2978 2976 2974 2972 2971 2969 2966 2965 2963 2961 2959 2957 2954 2952 2950 2947 2945 2942 2939 2936 2934 2931 2928 2925 2922 2919 2916 2913 2911 2908 2906 2904 2901 2899 2896 2892 2890 2887 2884 2881 2878 2874 2871 2868 2865 2862 2859 2856 2853 2850 2847 2845 2843 2841 2838 2836 2834 2832 2831
2994 2992 2991 2989 2987 2985 2983 2981 2979 2977 2975 2973 2971 2970 2968 2966 2964 2962 2960 2958 2956 2953 2951 2948 2946 2944 2941 2938 2936 2933 2931 2928 2925 2922 2919 2916 2913 2910 2907 2904 2902 2900 2898 2895 2892 2889 2887 2884 2881 2878 2875 2871 2867 2864 2861 2857 2855 2852 2849 2846 2844 2841 2840 2838 2835 2833 2831 2830 2828
2991 2990 2988 2986 2984 2982 2980 2978 2976 2974 2973 2971 2969 2966 2965 2963 2961 2959 2957 2955 2952 2950 2947 2945 2942 2940 2937 2935 2932 2930 2927 2925 2922 2920 2916 2913 2910 2907 2905 2901 2898 2896 2894 2892 2889 2886 2884 2881 2878 2875 2871 2867 2864 2860 2857 2854 2851 2848 2846 2843 2841 2838 2836 2835 2833 2830 2828 2826 2825
2989 2987 2985 2983 2981 2979 2977 2975 2973 2971 2970 2968 2966 2964 2962 2960 2958 2956 2954 2952 2949 2946 2944 2941 2939 2936 2934 2931 2928 2926 2923 2921 2919 2917 2914 2911 2908 2905 2902 2899 2896 2893 2891 2889 2886 2883 2880 2877 2875 2871 2868 2864 2860 2857 2853 2850 2847 2845 2842 2840 2837 2835 2833 2831 2830 2828 2826 2824 2823
2986 2985 2982 2980 2978 2976 2975 2973 2971 2969 2967 2966 2964 2962 2960 2958 2956 2953 2951 2949 2946 2943 2941 2938 2936 2933 2930 2928 2925 2922 2920 2918 2916 2913 2911 2908 2905 2902 2899 2896 2893 2890 2887 2885 2883 2880 2877 2874 2871 2868 2864 2861 2857 2853 2850 2847 2844 2841 2839 2837 2835 2833 2830 2828 2826 2825 2824 2822 2820